Location: *
(46.3500°N, 10.9000°E)
Time: 11:12:49
(UTC+00:00)

Meteor 2-3 Rocket - Pass Details

Date: 09 April 2020
Orbit: 842 x 885 km, 81.2° (Epoch: 24 May)

Event Time Altitude Azimuth Distance (km) Brightness Sun altitude
Rises 21:48:10 0° 344° (NNW) 3,478 8.0 -32.1°
Reaches altitude 10° 21:50:41 10° 340° (NNW) 2,529 7.0 -32.3°
Enters shadow 21:55:25 47° 293° (WNW) 1,129 4.5 -32.6°
